This demonstration page uses our WeatherBlox Daily Observations layout. Learn more.

Left ArrowRight Arrow

44.89941, -97.11507

Hourly Observations for June 9, 2018

Temp ( °F °C ) Dew Point ( °F °C ) Humidity (%) Winds ( mph kmh ) Pressure ( in mb ) Visibility ( mi km ) Precip ( " mm )
12:53 am 00:53 Clear 71 21.7 63 17.2 76 76 SSE 6 9 29.91 1013 10 16 0.00 0.00
1:53 am 01:53 Mostly Clear 68 20 64 17.8 87 87 S 8 13 29.94 1014 10 16 0.00 0.00
2:53 am 02:53 Clear 69 20.6 64 17.8 84 84 ESE 5 7 29.88 1012 10 16 0.00 0.00
3:53 am 03:53 Clear 68 20 65 18.3 90 90 SSW 9 15 29.88 1012 10 16 0.00 0.00
4:53 am 04:53 Mostly Clear 67 19.4 63 17.2 87 87 WSW 3 6 29.89 1012 10 16 0.00 0.00
5:53 am 05:53 Cloudy 66 18.9 65 18.3 96 96 N 8 13 29.88 1012 10 16 0.00 0.00
6:53 am 06:53 Mostly Cloudy 68 20 64 17.8 87 87 E 5 7 29.94 1014 10 16 0.00 0.00
7:40 am 07:40 Cloudy with Light Rain 68 20 65 18.3 90 90 Calm 29.94 1014 7 11 0.01 0.25
7:49 am 07:49 Cloudy with Light Rain 66 19 64 18 94 94 Calm 29.94 1014 3 5 0.03 0.76
7:53 am 07:53 Cloudy with Light Rain 67 19.4 65 18.3 93 93 VRB 3 6 29.96 1015 5 8 0.03 0.76
8:53 am 08:53 Cloudy 66 18.9 65 18.3 96 96 N 9 15 29.92 1013 10 16 0.05 1.27
9:53 am 09:53 Mostly Cloudy with Light Rain 68 20 63 17.2 84 84 NNE 10 17 29.88 1012 10 16 0.00 0.03
10:53 am 10:53 Mostly Cloudy 72 22.2 62 16.7 71 71 NE 8 13 29.88 1012 10 16 0.00 0.03
11:53 am 11:53 Cloudy 70 21.1 62 16.7 76 76 E 12 19 29.89 1012 10 16 0.00 0.00
12:53 pm 12:53 Sunny 74 23.3 65 18.3 74 74 ESE 7 11 29.89 1012 10 16 0.00 0.00
1:53 pm 13:53 Mostly Sunny 74 23.3 64 17.8 71 71 SSE 7 11 29.91 1013 10 16 0.00 0.00
2:53 pm 14:53 Sunny 76 24.4 62 16.7 62 62 SE 10 17 29.93 1013 10 16 0.00 0.00
3:53 pm 15:53 Sunny 76 24.4 62 16.7 62 62 SE 13 20 29.90 1013 10 16 0.00 0.00
4:53 pm 16:53 Sunny 78 25.6 61 16.1 56 56 VRB 6 9 29.88 1012 10 16 0.00 0.00
5:53 pm 17:53 Sunny 78 25.6 63 17.2 60 60 E 8 13 29.87 1012 10 16 0.00 0.00
6:53 pm 18:53 Sunny 77 25 60 15.6 56 56 E 7 11 29.85 1011 10 16 0.00 0.00
7:53 pm 19:53 Sunny 74 23.3 59 15 60 60 E 7 11 29.85 1011 10 16 0.00 0.00
8:53 pm 20:53 Sunny 71 21.7 62 16.7 73 73 VRB 6 9 29.85 1011 10 16 0.00 0.00
9:53 pm 21:53 Clear 68 20 63 17.2 84 84 E 7 11 29.87 1011 10 16 0.00 0.00
10:53 pm 22:53 Clear 65 18.3 63 17.2 93 93 SE 8 13 29.87 1012 10 16 0.00 0.00
11:49 pm 23:49 Partly Cloudy 64 18 63 17 94 94 ESE 10 17 29.85 1011 10 16 0.00 0.00
11:53 pm 23:53 Mostly Cloudy 64 17.8 63 17.2 96 96 E 8 13 29.88 1012 10 16 0.00 0.00

Powered by AerisWeather